Location: Essen
(51.4609°N, 7.0127°E)
Time: 05:51:59
(UTC+01:00)

ISS - Pass Details

Date: 07 January 2018
Orbit: 401 x 406 km, 51.6° (Epoch: 17 January)

Event Time Altitude Azimuth Distance (km) Brightness Sun altitude
Exits shadow 05:58:09 42° 83° (E) 598 -2.6 -23.4°
Drops below altitude 10° 06:00:26 10° 87° (E) 1,468 0.1 -23.1°
Sets 06:02:31 0° 88° (E) 2,329 1.4 -22.8°
